Simultaneous Nadir Overpasses (SNOs) Predictions

Prediction of SNOs between GOES-14 and AQUA Satellite Orbit:

Table of predicted SNOs for the next 14.0 days since TLE Epoch: 1/18/2025
Index Date Time (GOES-14) GOES-14 Lat,Lon AQUA Lat,Lon Distance(km) Time Diff (sec)
1 01/18/2025 21:33:11 -0.33,-108.08 0.01,-106.58 171.17 80
2 01/19/2025 09:55:18 0.35,-108.12 1.03,-111.28 358.95 80
3 01/21/2025 09:33:29 0.34,-108.10 0.04,-106.59 171.71 80
4 01/21/2025 21:55:45 -0.35,-108.05 -1.06,-111.32 372.85 80
5 01/23/2025 21:33:55 -0.35,-108.02 -0.05,-106.63 158.09 80
6 01/24/2025 09:56:02 0.37,-108.06 1.04,-111.34 371.97 80
7 01/26/2025 09:34:10 0.37,-108.03 0.06,-106.63 159.23 80
8 01/26/2025 21:56:24 -0.38,-107.98 -1.11,-111.36 385.22 80
9 01/28/2025 21:34:32 -0.38,-107.94 -0.11,-106.66 146.28 80
10 01/29/2025 09:56:37 0.39,-107.98 1.12,-111.36 383.73 80
11 01/31/2025 09:34:43 0.39,-107.95 0.10,-106.65 148.50 80
12 01/31/2025 21:56:57 -0.40,-107.90 -1.15,-111.37 395.55 80
